OBJECT A, 100237

Orbit data source: Space-Track

You're viewing an uncataloged RSO

Recently launched and/or uncataloged RSOs may have evolving metadata. Metadata may include the following, but is not limited to: Owner, Manufacturer, Bus, Motor, and Mission.

OBJECT A, 100237 is a satellite in SSO that was launched on Wed, 05 Aug 2026 UTC launched from the Yellow Sea Launch Area, China (YSLA). Unknown objects in Earth's orbit typically refer to objects detected orbiting the Earth but have not yet been identified or cataloged. These objects could be anything from previously untracked satellites, spent rocket stages, debris from satellite collisions, or even natural meteoroids temporarily captured by Earth's gravity.

Loading next visibility...
Identifier
100237, 2026-178A
Orbit
SSO
Country
Flag of TBDTBD
Related business
None
Manufacturer
Unknown
Mission
Operational spacecraft
Bus & Motor
Unknown
Mass
Unknown
Launch date (UTC)
2026-08-05 (2 months ago)
Launch vehicle
Unknown
Launch site
Yellow Sea Launch Area, China (YSLA)
Object type
Unknown
Shape & HBR
Unknown shape, 1.1 m
Radar Cross Section
Large (>1 m²)

Expand to show TLE details & history
Last TLE update: 15 hours ago

TLE from 15 hours ago
0 OBJECT A
1 A0237U 26178A   26263.48452088  .00000023  00000-0  25475-4 0  9996
2 A0237  98.5462 337.0293 0025665 158.8060 201.4192 14.30606081  6630
Epoch: 2026-09-20T11:37Z
TLE epoch observation values (Epoch: 2026-09-20T11:37:42.604Z)
Latitude
Longitude
163.22375°
Altitude
809.775 km
Speed
7.44 km/s
True Right ascension
22h 28m 07s
True Declination
0° 00' 00"
Sunlit
Object was in full shadow at epoch
Visualization orbit readout
Latitude
Unknown
Longitude
Unknown
Altitude
Unknown
Speed
Unknown
Apparent Right ascension
Unknown
Apparent Declination
Unknown
Sunlit
N/A
Visualization observer readout
Local Sidereal Time
19:53:06
Azimuth
Unknown
Elevation
Unknown
Doppler factor
Unknown
Orbital elements
Apogee altitude
805.231 km
Perigee altitude
768.453 km
Semi-major axis
7,164.979 km
Eccentricity
0.00257
Inclination
98.5462°
RAAN
337.0293°
Arg. of periapsis
158.806°
True anomaly
201.31212°
Mean anomaly
201.4192°
Eccentric anomaly
201.36563°
Mean motion
3.57866 °/min
Orbital period
100.6 mins
BSTAR
0.000025475
Loading maneuver chart data...
Computing Atmospheric mass density...
Loading historical data...
Loading historical data...
Loading historical data...
Loading historical data...
Loading historical data...
Loading historical data...
Loading historical data...
Other satellites on launch #178 in the year 2026 (2026-08-05 UTC)

Documentation

Showing up to 5 results
|